User: anonymous   Login
Location: Norwich
(52.6280°N, 1.3030°E)
Time: 08:28:51
(UTC+00:00)
Language:

APEX - Orbit

View from above orbital plane
View from above orbital plane
View from above satellite
View from above satellite

Ground track
Ground track

The orbit data is extracted from the following two-line orbital elements,

1 23191U 94046A   14331.18479694  .00029265  00000-0  11765-2 0   626
2 23191 069.9183 185.1701 0716527 082.3250 030.0686 14.09887674983440
Epoch (UTC): 27 November 2014 04:26:06
Eccentricity: 0.0716527
inclination: 69.9183°
perigee height: 341 km
apogee height: 1378 km
right ascension of ascending node: 185.1701°
argument of perigee: 82.3250°
revolutions per day: 14.09887674
mean anomaly at epoch: 30.0686°
orbit number at epoch: 98344

The dashed part of the orbit path shows where the satellite is in the earth's shadow,  

DLR